Find Starlink 30446

NORAD ID: 57872 Int'l Des: 2023-144 Owner: SPXS Country: US Constellation: starlink operational
LEOCIRCULAR

Current View

Loading 3D Globe...

About Starlink 30446

Starlink 30446 (NORAD 57872) is a starlink constellation satellite (v2 mini) launched Sep 16, 2023 by SPXS of US. It operates in LEO, CIRCULAR orbit with a mass of 730.00 kg.

About Starlink 30446

Description loading...

Upcoming Passes

Passes for default location (London). Set your location on the main map for personalized predictions.

Altitude History

Loading altitude history...

Two-Line Element Set

1 57872U 23144J 26170.36849288 .00000928 00000-0 43227-4 0 9998
2 57872 43.0018 56.8493 0001386 261.0090 99.0605 15.27580200153084
Epoch: Jun 19, 2026 • Age: 23 hours

Current Status

Altitude 483.7 km
Velocity 7.63 km/s
Sub-Earth Point 26.91°N, 178.98°E
Launch Date Sep 16, 2023
Age 2.7 years
Type internet

Technical Details

Classification Payload
Mass 730.00 kg
Dry Mass 700.00 kg
Total Mass 730.00 kg
Length 0.30 m
Diameter 4.10 m
Span 29.00 m
Shape Box + pan
Manufacturer SPXS
Bus Type Starlink V2M
Phase Status In Orbit
Owner/State SPXS/US

Most Searched